Location: State Camp
(41.2367°N, 77.7828°W)
Time: 09:51:42
(UTC-04:00)

Amateur Radio Satellites - All Passes

Search period start: 23 June 2017 09:21
Search period end: 24 June 2017 09:21
Location: State Camp, 41.2367°N, 77.7828°W

Satellite Date Start Highest point End Downlink Frequencies (MHz)
Time Altitude Azimuth
TIGRISAT 23 Jun 09:30:13 09:33:52 24° 66° (ENE) 09:37:34 435.000
CUBEBUG 2 23 Jun 09:47:26 09:51:46 36° 290° (WNW) 09:56:00 437.445
SEEDS 23 Jun 09:53:11 09:56:24 22° 292° (WNW) 09:59:37 437.485
AO-73 23 Jun 09:54:27 09:58:57 87° 101° (ESE) 10:03:19 145.935
XW-2A 23 Jun 09:59:11 10:00:18 11° 295° (WNW) 10:01:23 145.665 - 145.685
YUBILEINY 23 Jun 10:03:38 10:12:33 83° 83° (E) 10:21:21 435.215
CUTE 1.7 + AOD 2 23 Jun 10:07:01 10:08:18 11° 297° (WNW) 10:09:36 437.475
UNISAT 6 23 Jun 10:10:27 10:14:58 66° 75° (ENE) 10:19:36 437.425
PRISM 23 Jun 10:11:04 10:15:05 71° 76° (ENE) 10:19:08 437.425
M-CUBED/EXP-1 PRIME 23 Jun 10:11:20 10:14:16 27° 257° (WSW) 10:17:08 437.505
RS-15 23 Jun 10:14:05 10:17:16 11° 268° (W) 10:20:26 29.354- 29.394
HO-68 23 Jun 10:18:43 10:24:27 27° 301° (WNW) 10:30:10 435.675
Oscar 11 23 Jun 10:25:05 10:29:19 55° 286° (WNW) 10:33:30 .
FO-29 23 Jun 10:25:16 10:31:09 77° 258° (WSW) 10:37:54 435.910
UWE-3 23 Jun 10:27:26 10:31:05 23° 293° (WNW) 10:34:40 435.000/436.395/437.385
ZACube-1 23 Jun 10:28:07 10:32:16 37° 289° (WNW) 10:36:18 437.345
ISS 23 Jun 10:28:23 10:31:39 76° 325° (NW) 10:34:57 437.550
Tancredo 1 23 Jun 10:41:40 10:44:24 30° 334° (NNW) 10:47:10 437.200
AAUSAT CUBESAT 2 23 Jun 10:54:18 10:55:18 11° 297° (WNW) 10:56:19 437.432
NANOSAT C BR1 23 Jun 10:58:44 11:00:27 12° 62° (ENE) 11:02:11 145.865
TIGRISAT 23 Jun 11:06:09 11:10:20 35° 263° (W) 11:14:37 435.000
DELFI C3 23 Jun 11:07:34 11:11:28 66° 285° (WNW) 11:15:22 145.870
EO-88 23 Jun 11:11:53 11:15:33 86° 285° (WNW) 11:19:11 145.990 - 145.960
POLYITAN 1 23 Jun 11:31:34 11:35:17 30° 69° (ENE) 11:39:02 437.675
QB50P2 23 Jun 11:41:53 11:45:54 42° 72° (ENE) 11:49:57 145.880/145.840
LO-87 23 Jun 11:43:36 11:46:44 27° 96° (E) 11:49:52 145.935 - 145.965
UNISAT 6 23 Jun 11:50:16 11:52:07 12° 271° (W) 11:54:00 437.425
AIST 2D 23 Jun 11:59:32 12:03:02 54° 260° (W) 12:06:32 435.315
YUBILEINY 23 Jun 12:02:19 12:08:10 20° 282° (WNW) 12:14:01 435.215
ISS 23 Jun 12:06:10 12:08:34 18° 344° (NNW) 12:10:59 437.550
EO-79 23 Jun 12:07:06 12:11:19 76° 77° (ENE) 12:15:37 145.935-145.965
BUGSAT 1 23 Jun 12:10:49 12:13:49 20° 66° (ENE) 12:16:51 437.445
FO-29 23 Jun 12:17:14 12:17:35 10° 278° (W) 12:17:55 435.910
Tancredo 1 23 Jun 12:19:17 12:20:44 13° 353° (N) 12:22:11 437.200
ESTCUBE 1 23 Jun 12:19:35 12:23:51 42° 99° (E) 12:28:06 437.505/2401.250
DUCHIFAT 1 23 Jun 12:24:17 12:28:30 86° 260° (W) 12:32:47 145.980
PCSat 23 Jun 12:26:04 12:30:44 30° 109° (ESE) 12:35:26 145.827
NANOSAT C BR1 23 Jun 12:31:25 12:35:37 63° 259° (W) 12:39:50 145.865
VELOX 1 23 Jun 12:33:57 12:36:19 14° 91° (E) 12:38:40 145.980
Oscar 19 23 Jun 13:07:29 13:12:07 35° 68° (ENE) 13:16:46 437.125/150
POLYITAN 1 23 Jun 13:07:40 13:11:04 23° 265° (W) 13:14:30 437.675
SPROUT 23 Jun 13:13:12 13:17:17 41° 98° (E) 13:21:21 437.525
LO-87 23 Jun 13:17:24 13:19:59 19° 292° (WNW) 13:22:35 145.935 - 145.965
QB50P2 23 Jun 13:19:11 13:21:52 16° 268° (W) 13:24:35 145.880/145.840
50 SAT 23 Jun 13:25:41 13:28:19 21° 96° (E) 13:30:57 437.505
UKube-1 23 Jun 13:25:50 13:26:33 10° 90° (E) 13:27:17 .
Gurwin Techsat 1B 23 Jun 13:40:11 13:45:11 44° 70° (ENE) 13:50:13 435.225
ISS 23 Jun 13:44:13 13:46:02 14° 4° (N) 13:47:51 437.550
BUGSAT 1 23 Jun 13:45:10 13:48:55 34° 263° (W) 13:52:45 437.445
Tancredo 1 23 Jun 13:55:26 13:57:18 15° 13° (NNE) 13:59:10 437.200
ESTCUBE 1 23 Jun 13:57:13 14:00:20 19° 295° (WNW) 14:03:26 437.505/2401.250
VELOX 1 23 Jun 14:08:45 14:13:04 53° 287° (WNW) 14:17:23 145.980
PCSat 23 Jun 14:08:56 14:13:59 39° 307° (NW) 14:19:05 145.827
AO-7 23 Jun 14:32:57 14:40:14 36° 58° (ENE) 14:47:33 .
DX 1 23 Jun 14:36:22 14:40:45 81° 287° (WNW) 14:45:07 434.975-435.025
Oscar 19 23 Jun 14:47:02 14:51:27 28° 264° (W) 14:55:52 437.125/150
SPROUT 23 Jun 14:49:57 14:52:51 18° 295° (WNW) 14:55:46 437.525
SO-50 23 Jun 14:52:58 14:57:02 33° 115° (ESE) 15:01:07 436.795
50 SAT 23 Jun 14:58:26 15:01:01 20° 291° (WNW) 15:03:36 437.505
UKube-1 23 Jun 14:58:42 15:03:00 68° 286° (WNW) 15:07:17 .
ITUPSAT 1 23 Jun 15:17:47 15:20:59 18° 93° (E) 15:24:10 437.325
ITAMSAT 1 23 Jun 15:18:13 15:23:11 48° 70° (ENE) 15:28:11 435.822/435.867
ISS 23 Jun 15:20:25 15:23:20 28° 24° (NNE) 15:26:14 437.550
Gurwin Techsat 1B 23 Jun 15:21:07 15:25:18 23° 266° (W) 15:29:31 435.225
MOZHAYETS 4 23 Jun 15:22:55 15:24:50 12° 90° (E) 15:26:44
BEESAT 23 Jun 15:28:58 15:32:48 23° 95° (E) 15:36:35 436.000
Tancredo 1 23 Jun 15:30:26 15:33:26 53° 32° (NNE) 15:36:25 437.200
AO-7 23 Jun 16:24:31 16:32:38 56° 257° (WSW) 16:40:49 .
SO-50 23 Jun 16:33:30 16:37:30 29° 312° (NW) 16:41:30 436.795
ITUPSAT 1 23 Jun 16:54:26 16:59:04 49° 289° (WNW) 17:03:40 437.325
ISS 23 Jun 16:56:46 16:59:55 43° 222° (SW) 17:03:03 437.550
MOZHAYETS 4 23 Jun 16:57:51 17:02:24 64° 286° (WNW) 17:06:55
ITAMSAT 1 23 Jun 16:59:01 17:02:52 21° 267° (W) 17:06:46 435.822/435.867
BEESAT 23 Jun 17:06:15 17:10:38 37° 291° (WNW) 17:15:00 436.000
Tancredo 1 23 Jun 17:06:52 17:08:44 15° 228° (SW) 17:10:36 437.200
KKS-1 23 Jun 17:12:41 17:16:12 22° 95° (E) 17:19:42 437.445
NUDT-PHONESAT 23 Jun 17:31:26 17:32:53 12° 65° (ENE) 17:34:19 437.300
CUBESAT XI-V 23 Jun 17:32:21 17:36:53 55° 100° (E) 17:41:22 437.345
DOVE 4 23 Jun 17:34:32 17:38:24 40° 72° (ENE) 17:42:22 437.250
XW-2F 23 Jun 17:38:08 17:40:48 18° 67° (ENE) 17:43:27 145.980 - 146.000
XW-2D 23 Jun 17:40:09 17:43:03 21° 68° (ENE) 17:45:57 145.860 - 145.880
CUTE-I 23 Jun 17:44:34 17:49:02 28° 66° (ENE) 17:53:33 437.470
LilacSat-2 23 Jun 17:45:11 17:48:21 24° 69° (ENE) 17:51:31 437.200
XW-2B 23 Jun 17:48:46 17:51:56 25° 70° (ENE) 17:55:06 145.730 - 145.750
STARS 23 Jun 17:49:05 17:52:38 23° 95° (E) 17:56:09 437.465
XW-2C 23 Jun 18:03:39 18:07:13 37° 72° (ENE) 18:10:48 145.795 - 145.815
KAITUO 1B 23 Jun 18:23:33 18:27:14 51° 74° (ENE) 18:30:55 145.475/437.950
KKS-1 23 Jun 18:48:45 18:52:48 34° 291° (WNW) 18:56:51 437.445
XW-2A 23 Jun 18:56:54 18:58:54 15° 67° (ENE) 19:00:55 145.665 - 145.685
HO-68 23 Jun 18:58:28 19:05:14 47° 66° (ENE) 19:12:03 435.675
NUDT-PHONESAT 23 Jun 19:02:41 19:06:20 49° 261° (W) 19:10:01 437.300
SEEDS 23 Jun 19:09:04 19:12:17 22° 68° (ENE) 19:15:29 437.485
CUBEBUG 2 23 Jun 19:09:30 19:12:47 20° 65° (ENE) 19:16:09 437.445
CUBESAT XI-V 23 Jun 19:11:03 19:13:48 16° 296° (WNW) 19:16:31 437.345
XW-2F 23 Jun 19:11:16 19:14:41 31° 263° (W) 19:18:09 145.980 - 146.000
XW-2D 23 Jun 19:13:45 19:17:04 27° 264° (W) 19:20:23 145.860 - 145.880
DOVE 4 23 Jun 19:13:47 19:16:20 16° 269° (W) 19:18:55 437.250
LilacSat-2 23 Jun 19:19:25 19:22:33 23° 265° (W) 19:25:42 437.200
CUTE 1.7 + AOD 2 23 Jun 19:21:06 19:25:10 45° 73° (ENE) 19:29:13 437.475
XW-2B 23 Jun 19:23:00 19:26:03 22° 265° (W) 19:29:07 145.730 - 145.750
CUTE-I 23 Jun 19:24:00 19:28:54 37° 262° (W) 19:33:52 437.470
STARS 23 Jun 19:25:01 19:28:59 33° 291° (WNW) 19:32:57 437.465
XW-2C 23 Jun 19:39:19 19:41:33 15° 268° (W) 19:43:47 145.795 - 145.815
Oscar 11 23 Jun 19:46:57 19:48:01 11° 62° (ENE) 19:49:06 .
UWE-3 23 Jun 19:47:16 19:51:11 29° 68° (ENE) 19:55:10 435.000/436.395/437.385
ZACube-1 23 Jun 19:48:27 19:51:26 18° 65° (ENE) 19:54:27 437.345
KAITUO 1B 23 Jun 20:00:36 20:01:31 11° 270° (W) 20:02:25 145.475/437.950
AAUSAT CUBESAT 2 23 Jun 20:06:05 20:09:58 42° 72° (ENE) 20:13:51 437.432
RS-15 23 Jun 20:09:05 20:17:50 24° 99° (E) 20:26:41 29.354- 29.394
STRAND 1 23 Jun 20:26:22 20:31:27 56° 100° (E) 20:36:30 437.568
XW-2A 23 Jun 20:28:18 20:31:22 30° 263° (W) 20:34:29 145.665 - 145.685
AO-85 23 Jun 20:30:33 20:32:33 13° 110° (ESE) 20:34:31 145.980
SEEDS 23 Jun 20:44:01 20:47:46 31° 263° (W) 20:51:33 437.485
CUBEBUG 2 23 Jun 20:44:43 20:49:03 43° 262° (W) 20:53:32 437.445
HO-68 23 Jun 20:46:40 20:53:05 34° 264° (W) 20:59:32 435.675
AO-73 23 Jun 20:49:04 20:53:33 65° 75° (ENE) 20:58:06 145.935
CUTE 1.7 + AOD 2 23 Jun 20:58:45 21:01:13 15° 269° (W) 21:03:42 437.475
YUBILEINY 23 Jun 21:11:29 21:17:05 19° 77° (ENE) 21:22:43 435.215
PCSat 23 Jun 21:13:27 21:18:04 27° 49° (NE) 21:22:39 145.827
Oscar 11 23 Jun 21:19:10 21:23:31 76° 259° (W) 21:27:53 .
ZACube-1 23 Jun 21:22:55 21:27:18 49° 261° (W) 21:31:46 437.345
UWE-3 23 Jun 21:23:37 21:27:33 28° 265° (W) 21:31:34 435.000/436.395/437.385
FO-29 23 Jun 21:35:05 21:40:32 20° 88° (E) 21:45:56 435.910
O/OREOS (USA 219) 23 Jun 21:35:36 21:38:51 19° 101° (E) 21:42:06 437.305
AAUSAT CUBESAT 2 23 Jun 21:43:09 21:45:36 15° 268° (W) 21:48:04 437.432
BEESAT 3 23 Jun 21:47:59 21:51:49 50° 118° (ESE) 21:55:43 437.485
EO-88 23 Jun 21:49:21 21:52:46 37° 72° (ENE) 21:56:12 145.990 - 145.960
M-CUBED/EXP-1 PRIME 23 Jun 21:49:42 21:51:22 12° 99° (E) 21:53:03 437.505
DELFI C3 23 Jun 21:52:24 21:56:16 65° 76° (ENE) 22:00:11 145.870
UNISAT 6 23 Jun 22:03:40 22:06:14 15° 90° (E) 22:08:46 437.425
STRAND 1 23 Jun 22:06:38 22:10:10 19° 298° (WNW) 22:13:41 437.568
AO-85 23 Jun 22:08:32 22:12:31 52° 305° (NW) 22:16:23 145.980
NO-84 23 Jun 22:15:13 22:18:34 28° 127° (SE) 22:22:09 435.350 FM
RS-15 23 Jun 22:16:26 22:28:37 89° 121° (ESE) 22:41:05 29.354- 29.394
LO-87 23 Jun 22:21:22 22:22:41 12° 65° (ENE) 22:23:59 145.935 - 145.965
AO-73 23 Jun 22:28:25 22:30:12 12° 271° (W) 22:32:00 145.935
BEESAT 2 23 Jun 22:41:54 22:45:50 68° 120° (ESE) 22:49:51 435.950
PCSat 23 Jun 22:56:29 23:01:41 47° 247° (WSW) 23:06:50 145.827
TIGRISAT 23 Jun 22:57:12 23:01:44 49° 99° (E) 23:06:10 435.000
YUBILEINY 23 Jun 23:03:50 23:12:39 86° 279° (W) 23:21:33 435.215
O/OREOS (USA 219) 23 Jun 23:13:39 23:17:57 40° 298° (WNW) 23:22:14 437.305
FO-29 23 Jun 23:18:25 23:26:16 85° 284° (WNW) 23:34:05 435.910
ESTCUBE 1 23 Jun 23:18:52 23:23:02 39° 71° (ENE) 23:27:14 437.505/2401.250
M-CUBED/EXP-1 PRIME 23 Jun 23:22:25 23:25:56 46° 291° (WNW) 23:29:42 437.505
SO-50 23 Jun 23:23:51 23:27:55 31° 48° (NE) 23:31:59 436.795
EO-88 23 Jun 23:24:43 23:26:36 13° 268° (W) 23:28:28 145.990 - 145.960
BEESAT 3 23 Jun 23:26:53 23:29:40 18° 316° (NW) 23:32:29 437.485
AIST 2D 23 Jun 23:26:57 23:27:36 10° 91° (E) 23:28:15 435.315
PRISM 23 Jun 23:27:16 23:31:21 69° 285° (WNW) 23:35:26 437.425
VELOX 1 23 Jun 23:31:47 23:33:55 13° 62° (ENE) 23:36:03 145.980
UNISAT 6 23 Jun 23:38:42 23:43:18 56° 287° (WNW) 23:47:46 437.425
NO-84 23 Jun 23:52:08 23:56:00 43° 326° (NNW) 00:00:06 435.350 FM
LO-87 23 Jun 23:52:19 23:55:42 43° 261° (W) 23:59:08 145.935 - 145.965
EO-79 23 Jun 23:53:40 23:55:25 12° 90° (E) 23:57:11 145.935-145.965
SPROUT 24 Jun 00:06:24 00:10:10 31° 70° (ENE) 00:13:58 437.525
DUCHIFAT 1 24 Jun 00:09:33 00:12:01 15° 92° (E) 00:14:27 145.980
NANOSAT C BR1 24 Jun 00:16:20 00:19:31 20° 94° (E) 00:22:41 145.865
BEESAT 2 24 Jun 00:21:43 00:24:02 15° 318° (NW) 00:26:22 435.950
RS-15 24 Jun 00:31:59 00:42:54 35° 327° (NNW) 00:53:55 29.354- 29.394
TIGRISAT 24 Jun 00:34:52 00:38:00 18° 296° (WNW) 00:41:05 435.000
POLYITAN 1 24 Jun 00:51:19 00:55:34 55° 100° (E) 00:59:45 437.675
ESTCUBE 1 24 Jun 00:56:42 00:59:58 20° 267° (W) 01:03:15 437.505/2401.250
AIST 2D 24 Jun 00:57:42 01:01:03 43° 286° (WNW) 01:04:21 435.315
QB50P2 24 Jun 01:01:59 01:06:17 81° 101° (E) 01:10:33 145.880/145.840
SO-50 24 Jun 01:04:21 01:08:19 30° 246° (WSW) 01:12:17 436.795
FO-29 24 Jun 01:05:03 01:10:11 20° 303° (WNW) 01:15:23 435.910
YUBILEINY 24 Jun 01:05:07 01:10:50 18° 299° (WNW) 01:16:35 435.215
VELOX 1 24 Jun 01:05:32 01:09:50 60° 259° (WSW) 01:14:11 145.980
Oscar 19 24 Jun 01:21:12 01:22:46 11° 89° (E) 01:24:20 437.125/150
BUGSAT 1 24 Jun 01:26:32 01:30:23 32° 97° (E) 01:34:11 437.445
EO-79 24 Jun 01:27:19 01:31:32 57° 286° (WNW) 01:35:42 145.935-145.965
50 SAT 24 Jun 01:29:12 01:32:31 58° 260° (W) 01:35:51 437.505
DX 1 24 Jun 01:31:27 01:35:46 86° 72° (ENE) 01:40:07 434.975-435.025
NO-84 24 Jun 01:31:56 01:34:33 16° 346° (NNW) 01:37:14 435.350 FM
SPROUT 24 Jun 01:42:46 01:46:05 22° 266° (W) 01:49:27 437.525
DUCHIFAT 1 24 Jun 01:43:49 01:47:55 46° 287° (WNW) 01:51:57 145.980
NANOSAT C BR1 24 Jun 01:51:25 01:55:17 34° 290° (WNW) 01:59:07 145.865
UKube-1 24 Jun 01:52:38 01:56:56 82° 255° (WSW) 02:01:16 .
Gurwin Techsat 1B 24 Jun 01:57:23 02:00:48 17° 91° (E) 02:04:14 435.225
ITUPSAT 1 24 Jun 02:24:24 02:28:01 22° 65° (ENE) 02:31:41 437.325
MOZHAYETS 4 24 Jun 02:24:59 02:27:13 13° 62° (ENE) 02:29:26
POLYITAN 1 24 Jun 02:28:38 02:30:51 14° 297° (WNW) 02:33:03 437.675
BEESAT 24 Jun 02:35:13 02:39:15 28° 67° (ENE) 02:43:18 436.000
RS-15 24 Jun 02:51:28 03:00:39 23° 2° (N) 03:09:40 29.354- 29.394
Oscar 19 24 Jun 02:57:32 03:02:41 82° 286° (WNW) 03:07:48 437.125/150
BUGSAT 1 24 Jun 03:02:15 03:05:32 22° 293° (WNW) 03:08:48 437.445
NO-84 24 Jun 03:11:22 03:13:39 14° 8° (N) 03:15:57 435.350 FM
ITAMSAT 1 24 Jun 03:32:11 03:35:28 17° 91° (E) 03:38:44 435.822/435.867
Gurwin Techsat 1B 24 Jun 03:35:54 03:41:08 60° 288° (WNW) 03:46:21 435.225
MOZHAYETS 4 24 Jun 03:59:10 04:03:47 68° 258° (WSW) 04:08:25
ITUPSAT 1 24 Jun 04:01:02 04:05:34 42° 261° (W) 04:10:08 437.325
KKS-1 24 Jun 04:10:55 04:14:14 21° 66° (ENE) 04:17:35 437.445
BEESAT 24 Jun 04:12:40 04:16:54 31° 263° (W) 04:21:11 436.000
AO-7 24 Jun 04:25:50 04:33:59 52° 102° (ESE) 04:42:03 .
CUBESAT XI-V 24 Jun 04:35:17 04:39:47 53° 73° (ENE) 04:44:18 437.345
Oscar 19 24 Jun 04:39:59 04:41:09 11° 303° (WNW) 04:42:19 437.125/150
STARS 24 Jun 04:45:51 04:49:09 21° 66° (ENE) 04:52:27 437.465
NO-84 24 Jun 04:48:36 04:52:27 29° 28° (NNE) 04:56:14 435.350 FM
AO-85 24 Jun 04:59:52 05:02:18 15° 43° (NE) 05:04:48 145.980
RS-15 24 Jun 05:06:49 05:18:03 39° 36° (NE) 05:28:48 29.354- 29.394
ITAMSAT 1 24 Jun 05:10:09 05:15:19 60° 288° (WNW) 05:20:27 435.822/435.867
DOVE 4 24 Jun 05:33:52 05:36:12 13° 90° (E) 05:38:35 437.250
KKS-1 24 Jun 05:46:28 05:50:33 36° 262° (W) 05:54:41 437.445
CUTE-I 24 Jun 06:04:31 06:05:01 10° 88° (E) 06:05:31 437.470
BEESAT 3 24 Jun 06:04:49 06:08:24 30° 49° (NE) 06:11:56 437.485
STRAND 1 24 Jun 06:07:48 06:08:52 11° 57° (ENE) 06:09:57 437.568
CUBESAT XI-V 24 Jun 06:14:46 06:17:27 15° 269° (W) 06:20:10 437.345
AO-7 24 Jun 06:18:59 06:26:28 38° 301° (WNW) 06:33:57 .
STARS 24 Jun 06:21:13 06:25:14 36° 262° (W) 06:29:19 437.465
NO-84 24 Jun 06:26:01 06:30:18 57° 227° (SW) 06:34:25 435.350 FM
NUDT-PHONESAT 24 Jun 06:34:11 06:36:17 14° 92° (E) 06:38:22 437.300
AO-85 24 Jun 06:38:57 06:43:03 67° 240° (WSW) 06:47:26 145.980
XW-2F 24 Jun 06:43:22 06:46:28 24° 95° (E) 06:49:31 145.980 - 146.000
XW-2D 24 Jun 06:45:57 06:49:14 28° 96° (E) 06:52:30 145.860 - 145.880
LilacSat-2 24 Jun 06:51:55 06:55:24 34° 97° (E) 06:58:51 437.200
XW-2B 24 Jun 06:54:45 06:58:14 34° 97° (E) 07:01:40 145.730 - 145.750
BEESAT 2 24 Jun 06:59:34 07:03:25 39° 52° (NE) 07:07:13 435.950
DOVE 4 24 Jun 07:09:24 07:14:15 70° 284° (WNW) 07:19:20 437.250
XW-2C 24 Jun 07:09:58 07:13:42 56° 100° (E) 07:17:22 145.795 - 145.815
RS-15 24 Jun 07:19:39 07:31:47 78° 242° (WSW) 07:43:15 29.354- 29.394
KAITUO 1B 24 Jun 07:28:26 07:32:09 74° 101° (ESE) 07:35:49 145.475/437.950
CUTE-I 24 Jun 07:40:23 07:45:48 86° 105° (ESE) 07:51:11 437.470
STRAND 1 24 Jun 07:42:03 07:47:10 80° 75° (ENE) 07:52:21 437.568
BEESAT 3 24 Jun 07:42:34 07:45:52 25° 247° (WSW) 07:49:06 437.485
O/OREOS (USA 219) 24 Jun 07:44:18 07:48:28 37° 62° (ENE) 07:52:37 437.305
XW-2A 24 Jun 07:50:48 07:52:46 14° 93° (E) 07:54:43 145.665 - 145.685
Tancredo 1 24 Jun 08:02:49 08:04:00 12° 130° (SE) 08:05:11 437.200
NUDT-PHONESAT 24 Jun 08:06:55 08:10:18 35° 288° (WNW) 08:13:40 437.300
HO-68 24 Jun 08:13:20 08:20:16 48° 100° (E) 08:27:07 435.675
XW-2F 24 Jun 08:17:33 08:20:28 22° 291° (WNW) 08:23:23 145.980 - 146.000
XW-2D 24 Jun 08:20:30 08:23:14 19° 292° (WNW) 08:25:57 145.860 - 145.880
LilacSat-2 24 Jun 08:27:00 08:29:24 16° 293° (WNW) 08:31:47 437.200
SEEDS 24 Jun 08:27:15 08:31:10 39° 98° (E) 08:35:03 437.485
XW-2B 24 Jun 08:29:46 08:32:07 16° 294° (WNW) 08:34:29 145.730 - 145.750
CUBEBUG 2 24 Jun 08:35:22 08:39:50 41° 97° (E) 08:44:11 437.445
M-CUBED/EXP-1 PRIME 24 Jun 08:36:11 08:37:54 14° 61° (ENE) 08:39:36 437.505
BEESAT 2 24 Jun 08:38:00 08:40:53 19° 249° (WSW) 08:43:45 435.950
AO-73 24 Jun 08:39:04 08:41:00 13° 89° (E) 08:42:56 145.935
CUTE 1.7 + AOD 2 24 Jun 08:41:18 08:45:32 87° 282° (WNW) 08:49:44 437.475
XW-2C 24 Jun 08:46:29 08:47:22 11° 296° (WNW) 08:48:16 145.795 - 145.815
UNISAT 6 24 Jun 09:02:52 09:05:13 14° 62° (ENE) 09:07:34 437.425
Oscar 11 24 Jun 09:07:10 09:10:18 19° 93° (E) 09:13:25 .
ZACube-1 24 Jun 09:11:25 09:15:28 32° 96° (E) 09:19:23 437.345
UWE-3 24 Jun 09:12:28 09:17:03 61° 100° (E) 09:21:29 435.000/436.395/437.385
